FW8483 Weather Reports


time (UTC)temp
C
wind
direction
speed
KPH
gust
KPH
rain 1hr
cm
rain 24hr
cm
rain mn
cm
humidity
%
barometer
mb
20260502130504 12 69 6.4 14.5 0.05 7.11 2.59 95 1012.0
20260502123509 12 30 6.4 16.1 0.08 7.11 2.59 95 1011.7
20260502123028 12 11 8.0 16.1 0.10 7.09 2.57 95 1012.1
20260502122508 12 5 4.8 17.7 0.15 7.09 2.57 95 1012.3
20260502122009 12 56 8.0 22.5 0.25 7.06 2.54 95 1011.9
20260502121506 12 360 11.3 22.5 0.28 7.06 2.54 95 1011.6
20260502121004 12 36 9.7 17.7 0.28 7.06 2.54 95 1011.3
20260502120503 12 15 4.8 17.7 0.28 7.06 2.54 95 1011.4
20260502115504 12 61 8.0 14.5 0.30 7.06 2.54 95 1011.7
20260502115008 12 19 4.8 14.5 0.30 7.06 2.54 95 1011.8
20260502114521 12 9 4.8 14.5 0.33 7.06 2.54 95 1012.0
20260502114007 12 81 6.4 14.5 0.36 7.04 2.51 95 1012.2
20260502113508 12 20 4.8 16.1 0.38 7.04 2.51 95 1012.3
20260502113024 12 298 6.4 14.5 0.36 6.99 2.46 95 1012.3
20260502112507 12 28 3.2 16.1 0.30 6.93 2.41 95 1012.9
20260502112006 12 9 6.4 16.1 0.20 6.81 2.29 96 1012.8
20260502111532 12 286 6.4 12.9 0.18 6.78 2.26 96 1012.4
20260502111004 12 340 3.2 9.7 0.18 6.78 2.26 96 1011.3
20260502110505 12 47 1.6 16.1 0.20 6.78 2.26 96 1011.0
20260502110012 12 271 4.8 16.1 0.23 6.76 2.24 96 1010.5
20260502105505 12 30 6.4 12.9 0.38 6.76 2.24 96 1010.7
20260502105004 12 46 4.8 16.1 0.48 6.76 2.24 96 1011.0
20260502104519 12 29 6.4 16.1 0.64 6.73 2.21 95 1010.9
20260502104004 12 34 6.4 19.3 0.69 6.68 2.16 95 1010.9
20260502103504 12 45 4.8 19.3 0.74 6.65 2.13 95 1011.6
20260502103021 13 34 6.4 17.7 0.74 6.63 2.11 95 1010.8
20260502102508 13 10 6.4 17.7 0.74 6.63 2.11 96 1011.4
20260502102008 13 26 11.3 17.7 0.71 6.60 2.08 96 1011.6
20260502101525 13 298 8.0 16.1 0.74 6.60 2.08 96 1011.6
20260502101012 13 315 3.2 14.5 0.74 6.60 2.08 96 1010.8
20260502100507 13 331 6.4 16.1 0.71 6.58 2.06 96 1010.5
20260502091015 13 60 4.8 9.7 0.43 5.87 1.32 96 1009.6
20260502090508 13 87 4.8 12.9 0.56 5.87 1.32 96 1009.6
20260502071520 13 16 3.2 12.9 0.05 4.78 0.25 96 1011.3
20260502071004 13 329 6.4 14.5 0.00 4.72 0.20 96 1011.4
20260502070509 13 11 6.4 14.5 0.00 4.72 0.20 96 1011.0
20260502070024 13 64 8.0 17.7 0.00 4.72 0.20 96 1010.9
20260502065508 13 55 9.7 17.7 0.00 4.72 0.20 96 1011.0
20260502065013 13 88 8.0 16.1 0.00 4.72 0.20 96 1011.1
20260502064531 13 94 8.0 16.1 0.00 4.72 0.20 96 1011.3
20260502064016 13 46 6.4 16.1 0.00 4.72 0.20 96 1011.3
20260502063509 13 20 8.0 14.5 0.05 4.72 0.20 96 1011.3
20260502063018 13 72 4.8 12.9 0.08 4.72 0.20 96 1011.4
20260502062507 13 71 4.8 16.1 0.15 4.72 0.20 96 1011.4
20260502062005 13 96 6.4 16.1 0.15 4.72 0.20 96 1011.5
20260502061517 13 80 4.8 14.5 0.15 4.72 0.20 96 1011.4
20260502061007 13 60 6.4 14.5 0.18 4.72 0.20 96 1011.5
20260502060507 13 74 4.8 12.9 0.18 4.72 0.20 96 1011.7
20260502060024 13 34 3.2 11.3 0.20 4.72 0.20 96 1012.0
20260502055508 13 26 3.2 14.5 0.23 4.72 0.20 96 1012.0
20260502055008 13 34 6.4 17.7 0.25 4.72 0.20 96 1011.9
20260502054526 13 46 8.0 17.7 0.28 4.72 0.20 96 1011.5
20260502054006 13 18 8.0 19.3 0.36 4.72 0.20 96 1011.7
20260502053509 13 40 8.0 19.3 0.36 4.67 0.15 96 1011.6
20260502053026 13 93 14.5 19.3 0.41 4.65 0.13 96 1011.9
20260502052510 13 61 3.2 8.0 0.38 4.57 0.05 96 1013.1
20260502052006 13 116 1.6 8.0 0.46 4.57 0.05 96 1013.3
20260502051516 13 337 4.8 8.0 0.53 4.57 0.05 96 1013.4
20260502051006 13 309 0.0 4.8 0.64 4.55 0.03 96 1013.5
20260502050508 13 11 1.6 4.8 0.79 4.55 0.03 96 1013.3
20260502050026 13 24 0.0 4.8 1.04 4.52 0.00 96 1013.3
20260502045506 13 54 1.6 4.8 1.22 4.50 4.50 96 1013.1
20260502045013 13 46 1.6 4.8 1.55 4.47 4.47 96 1013.0
20260502044525 13 76 3.2 4.8 1.85 4.45 4.45 96 1013.3
20260502044011 13 5 1.6 3.2 1.96 4.37 4.37 96 1013.6
20260502043511 13 32 0.0 8.0 2.01 4.32 4.32 96 1013.9
20260502043026 13 40 1.6 9.7 2.08 4.24 4.24 96 1013.8
20260502042511 13 46 3.2 8.0 2.11 4.19 4.19 96 1013.6
20260502042011 13 292 3.2 11.3 2.13 4.11 4.11 96 1013.9
20260502041529 13 19 1.6 16.1 2.24 4.04 4.04 96 1013.8
20260502041009 13 35 3.2 22.5 2.24 3.91 3.91 96 1013.5
20260502040503 13 322 9.7 22.5 2.16 3.76 3.76 96 1013.4
20260502040019 13 295 6.4 16.1 2.06 3.48 3.48 96 1014.2
20260502035506 13 276 8.0 16.1 1.91 3.28 3.28 96 1013.4
20260502035006 13 315 6.4 16.1 1.63 2.92 2.92 96 1013.7
20260502034525 13 286 4.8 12.9 1.32 2.59 2.59 96 1013.4
20260502034007 13 9 4.8 19.3 1.17 2.41 2.41 95 1012.5
20260502033508 13 36 11.3 19.3 1.12 2.31 2.31 95 1012.1
20260502033012 13 74 6.4 22.5 1.04 2.16 2.16 95 1012.1
20260502032504 13 53 9.7 22.5 1.19 2.08 2.08 95 1011.7
20260502032004 13 80 8.0 14.5 1.22 1.98 1.98 95 1012.1
20260502031511 13 43 4.8 16.1 1.14 1.80 1.80 95 1012.4
20260502031004 13 17 8.0 16.1 1.07 1.68 1.68 95 1012.0
20260502030505 13 30 9.7 16.1 1.02 1.60 1.60 95 1011.8
20260502030022 13 51 3.2 8.0 0.86 1.42 1.42 95 1012.6
20260502025507 13 34 1.6 9.7 0.81 1.37 1.37 95 1012.2
20260502025006 13 28 4.8 11.3 0.76 1.30 1.30 95 1012.3
20260502024522 13 42 1.6 24.1 0.74 1.24 1.24 95 1012.0
20260502024006 13 23 6.4 24.1 0.76 1.24 1.24 95 1011.7
20260502023510 13 57 11.3 24.1 0.71 1.19 1.19 95 1011.6
20260502023032 13 75 12.9 22.5 0.64 1.12 1.12 94 1011.7
20260502022509 13 19 8.0 12.9 0.41 0.89 0.89 94 1012.2
20260502022006 13 39 3.2 17.7 0.28 0.76 0.76 94 1012.7
20260502021507 13 18 8.0 20.9 0.20 0.66 0.66 94 1012.5
20260502021004 13 34 9.7 20.9 0.15 0.61 0.61 93 1012.4
20260502020503 13 39 8.0 27.4 0.13 0.58 0.58 93 1012.7
20260502020019 14 20 4.8 27.4 0.13 0.56 0.56 93 1012.7
20260502015504 14 344 12.9 20.9 0.15 0.56 0.56 93 1012.4
20260502015006 15 352 4.8 16.1 0.15 0.53 0.53 94 1012.4
20260502014519 15 36 1.6 20.9 0.18 0.51 0.51 94 1012.4
20260502014008 15 16 9.7 20.9 0.20 0.48 0.48 94 1012.2
20260502013506 15 37 8.0 20.9 0.23 0.48 0.48 94 1012.0
20260502013024 15 62 8.0 20.9 0.28 0.48 0.48 94 1012.0
20260502012507 15 5 9.7 20.9 0.28 0.48 0.48 95 1011.8
20260502012009 15 352 6.4 14.5 0.30 0.48 0.48 95 1011.8
20260502011525 15 74 8.0 16.1 0.28 0.46 0.46 94 1011.9
20260502011003 15 60 8.0 16.1 0.28 0.46 0.46 94 1011.9
20260502010507 15 31 8.0 16.1 0.28 0.46 0.46 94 1012.0
20260502010013 16 46 6.4 12.9 0.25 0.43 0.43 95 1011.9
20260502005504 16 348 4.8 11.3 0.23 0.41 0.41 95 1011.9
20260502005006 16 96 3.2 8.0 0.20 0.38 0.38 94 1011.8
20260502004520 16 53 4.8 8.0 0.15 0.33 0.33 94 1012.0
20260502004007 16 294 4.8 14.5 0.10 0.28 0.28 94 1012.3
20260502003505 16 43 3.2 14.5 0.08 0.25 0.25 94 1012.0
20260502003023 16 107 1.6 8.0 0.03 0.20 0.20 94 1011.8
20260502002507 16 22 3.2 8.0 0.03 0.20 0.20 94 1011.9
20260502002009 16 31 4.8 8.0 0.00 0.18 0.18 94 1011.7
20260502001527 16 54 4.8 14.5 0.00 0.18 0.18 94 1011.5
20260502001008 16 59 6.4 14.5 0.00 0.18 0.18 94 1011.4
20260502000508 16 86 3.2 9.7 0.00 0.18 0.18 94 1011.3
20260502000017 16 21 4.8 14.5 0.00 0.18 0.18 94 1011.2
20260501235508 16 45 9.7 16.1 0.00 0.18 0.18 94 1011.0
20260501235005 16 17 8.0 14.5 0.00 0.18 0.18 94 1011.1
20260501234515 16 38 4.8 11.3 0.00 0.18 0.18 94 1011.5
20260501234006 16 34 4.8 12.9 0.00 0.18 0.18 94 1011.5
20260501233507 16 49 3.2 12.9 0.03 0.18 0.18 94 1011.6
20260501233021 16 33 4.8 9.7 0.03 0.18 0.18 94 1011.3
20260501232509 16 46 4.8 14.5 0.03 0.18 0.18 94 1011.5
20260501232009 16 69 6.4 14.5 0.03 0.18 0.18 94 1011.2
20260501231524 16 76 8.0 12.9 0.03 0.18 0.18 93 1011.0
20260501231007 16 66 4.8 9.7 0.03 0.18 0.18 93 1011.1
20260501230511 16 51 3.2 8.0 0.03 0.18 0.18 93 1011.8
20260501230026 16 190 3.2 8.0 0.03 0.18 0.18 93 1012.1
20260501225510 16 33 4.8 8.0 0.03 0.18 0.18 93 1011.9
20260501225005 16 5 4.8 9.7 0.03 0.18 0.18 92 1012.0
20260501224515 16 24 1.6 12.9 0.03 0.18 0.18 92 1012.1
20260501224006 16 26 4.8 12.9 0.03 0.18 0.18 92 1011.8
20260501223506 16 68 8.0 17.7 0.00 0.15 0.15 92 1011.9
20260501223019 16 26 4.8 17.7 0.00 0.15 0.15 92 1011.6
20260501222507 16 27 11.3 17.7 0.00 0.15 0.15 92 1011.3
20260501222008 16 23 6.4 14.5 0.00 0.15 0.15 92 1011.9
20260501221522 16 33 1.6 11.3 0.00 0.15 0.15 92 1012.3
20260501221014 16 302 3.2 8.0 0.00 0.15 0.15 92 1012.3
20260501220508 16 321 4.8 9.7 0.00 0.15 0.15 92 1011.9
20260501220026 16 79 3.2 9.7 0.00 0.15 0.15 92 1011.5
20260501215509 16 28 4.8 16.1 0.00 0.15 0.15 92 1011.3
20260501215008 16 58 3.2 16.1 0.00 0.15 0.15 91 1011.1
20260501214530 16 40 4.8 12.9 0.00 0.15 0.15 91 1010.9
20260501214003 16 57 6.4 14.5 0.00 0.15 0.15 91 1010.9
20260501213507 16 31 4.8 14.5 0.00 0.15 0.15 91 1011.1
20260501213018 16 40 8.0 19.3 0.00 0.15 0.15 91 1010.9
20260501212507 16 352 6.4 19.3 0.00 0.15 0.15 91 1010.9
20260501212007 16 54 11.3 19.3 0.00 0.15 0.15 91 1010.6
20260501211524 16 346 6.4 16.1 0.00 0.15 0.15 92 1010.8
20260501211009 16 53 6.4 12.9 0.00 0.15 0.15 91 1011.1
20260501210509 16 38 6.4 14.5 0.03 0.15 0.15 92 1011.3
20260501210025 17 63 4.8 14.5 0.03 0.15 0.15 92 1011.3
20260501205511 17 28 4.8 8.0 0.03 0.15 0.15 93 1011.3
20260501205012 17 49 1.6 4.8 0.05 0.15 0.15 93 1011.4
20260501204526 17 34 3.2 8.0 0.08 0.15 0.15 93 1011.4
20260501204012 16 13 3.2 8.0 0.10 0.15 0.15 92 1011.7
20260501203507 16 44 3.2 6.4 0.13 0.15 0.15 92 1011.8
20260501203017 16 104 3.2 6.4 0.13 0.15 0.15 93 1012.0
20260501202504 16 100 3.2 4.8 0.13 0.15 0.15 92 1012.1
20260501202009 16 10 1.6 3.2 0.13 0.15 0.15 92 1012.3
20260501201522 16 78 1.6 4.8 0.13 0.15 0.15 92 1012.3
20260501201006 16 176 3.2 4.8 0.13 0.15 0.15 92 1012.3
20260501200510 16 161 1.6 6.4 0.10 0.13 0.13 91 1012.5
20260501200024 17 104 1.6 6.4 0.10 0.13 0.13 91 1012.5
20260501195506 17 175 1.6 3.2 0.10 0.13 0.13 90 1012.5
20260501195007 17 232 0.0 3.2 0.08 0.10 0.10 90 1012.7
20260501194528 17 198 0.0 4.8 0.05 0.08 0.08 88 1012.7
20260501194009 17 33 0.0 8.0 0.03 0.05 0.05 87 1012.7
20260501193511 17 71 1.6 11.3 0.00 0.03 0.03 86 1012.8
20260501193040 17 57 4.8 16.1 0.03 0.03 0.03 86 1012.8
20260501192512 17 35 4.8 16.1 0.03 0.03 0.03 86 1012.7
20260501192004 17 31 6.4 12.9 0.03 0.03 0.03 86 1012.8
20260501191520 17 76 3.2 12.9 0.03 0.03 0.03 87 1012.9
20260501191005 17 17 6.4 12.9 0.03 0.03 0.03 86 1012.9
20260501190509 17 61 6.4 12.9 0.03 0.03 0.03 86 1012.9
20260501190028 17 49 4.8 12.9 0.03 0.03 0.03 87 1012.9
20260501185509 17 9 3.2 8.0 0.03 0.03 0.03 85 1013.0
20260501185008 17 296 1.6 8.0 0.03 0.03 0.03 85 1013.1
20260501184508 17 5 4.8 12.9 0.03 0.03 0.03 84 1012.9
20260501184003 17 42 1.6 12.9 0.03 0.03 0.03 85 1012.7
20260501183504 17 42 4.8 12.9 0.03 0.03 0.03 85 1012.4
20260501183014 17 44 3.2 12.9 0.00 0.00 0.00 84 1012.7
20260501182503 17 38 4.8 9.7 0.00 0.00 0.00 82 1013.0
20260501182007 18 50 0.0 8.0 0.00 0.00 0.00 80 1013.3
20260501181525 18 66 1.6 12.9 0.00 0.00 0.00 80 1013.2
20260501181006 18 26 6.4 12.9 0.00 0.00 0.00 80 1012.9
20260501180508 18 344 6.4 9.7 0.00 0.00 0.00 80 1013.0
20260501180023 18 41 4.8 14.5 0.00 0.00 0.00 79 1013.2
20260501175503 18 24 6.4 14.5 0.00 0.00 0.00 79 1013.1
20260501175002 18 44 4.8 8.0 0.00 0.00 0.00 80 1013.1
20260501174508 18 22 4.8 8.0 0.00 0.00 0.00 80 1013.2
20260501174004 18 352 3.2 9.7 0.00 0.00 0.00 80 1013.1
20260501173503 18 27 3.2 9.7 0.00 0.00 0.00 81 1013.3
20260501173012 18 10 3.2 8.0 0.00 0.00 0.00 81 1013.3
20260501172506 18 21 1.6 8.0 0.00 0.00 0.00 82 1013.6
20260501172005 18 350 4.8 8.0 0.00 0.00 0.00 82 1013.6
20260501171516 18 17 1.6 12.9 0.00 0.00 0.00 82 1013.6
20260501171005 18 22 4.8 12.9 0.00 0.00 0.00 82 1013.5
20260501170507 18 55 4.8 9.7 0.00 0.00 0.00 81 1013.4
20260501170024 18 41 4.8 9.7 0.00 0.00 0.00 81 1013.4
20260501165508 18 53 4.8 14.5 0.00 0.00 0.00 82 1013.4
20260501165006 18 112 4.8 14.5 0.00 0.00 0.00 82 1013.4
20260501164504 18 44 6.4 16.1 0.00 0.00 0.00 82 1013.4
20260501164003 18 14 4.8 16.1 0.00 0.00 0.00 82 1013.7
20260501163504 18 33 3.2 12.9 0.00 0.00 0.00 83 1013.6
20260501163010 18 40 8.0 12.9 0.00 0.00 0.00 81 1013.5
20260501162504 18 24 1.6 8.0 0.00 0.00 0.00 82 1013.7
20260501162004 18 49 3.2 8.0 0.00 0.00 0.00 79 1013.8
20260501161516 18 29 1.6 8.0 0.00 0.00 0.00 78 1013.8
20260501161013 18 24 4.8 8.0 0.00 0.00 0.00 75 1013.7
20260501160503 18 39 4.8 8.0 0.00 0.00 0.00 73 1013.9
20260501160021 18 35 3.2 8.0 0.00 0.00 0.00 74 1014.0
20260501155509 18 39 3.2 8.0 0.00 0.00 0.00 75 1014.0
20260501155010 18 21 3.2 4.8 0.00 0.00 0.00 75 1013.9
20260501154527 18 360 1.6 9.7 0.00 0.00 0.00 75 1014.2
20260501154006 19 19 1.6 11.3 0.00 0.00 0.00 72 1014.2
20260501153503 19 93 4.8 12.9 0.00 0.00 0.00 71 1013.8
20260501153007 19 93 8.0 12.9 0.00 0.00 0.00 71 1013.5
20260501152503 19 105 1.6 11.3 0.00 0.00 0.00 72 1013.8
20260501152006 19 105 4.8 11.3 0.00 0.00 0.00 72 1013.6
20260501151513 19 13 4.8 9.7 0.00 0.00 0.00 73 1013.8
20260501151004 18 59 3.2 9.7 0.00 0.00 0.00 74 1013.7
20260501150504 18 39 4.8 14.5 0.00 0.00 0.00 74 1013.5
20260501150019 18 44 6.4 17.7 0.00 0.00 0.00 74 1013.5
20260501145504 19 121 11.3 17.7 0.00 0.00 0.00 74 1013.1
20260501145008 19 65 11.3 17.7 0.00 0.00 0.00 75 1012.9
20260501144527 18 91 12.9 16.1 0.00 0.00 0.00 75 1013.2
20260501144006 18 107 11.3 16.1 0.00 0.00 0.00 76 1013.5